Location: Prairie View Elementary School
(39.8322°N, 99.5698°W)
Time: 11:16:22
(UTC+00:00)

NOSS 0 Rocket - Pass Details

Date: 08 December 2019
Orbit: 934 x 956 km, 70.0° (Epoch: 26 January)

Event Time Altitude Azimuth Distance (km) Brightness Sun altitude
Rises 00:17:57 0° 203° (SSW) 3,592 7.6 -12.1°
Reaches altitude 10° 00:20:28 10° 204° (SSW) 2,654 6.9 -12.6°
Maximum altitude 00:26:39 88° 293° (WNW) 955 4.0 -13.7°
Drops below altitude 10° 00:32:54 10° 24° (NNE) 2,685 5.9 -14.8°
Enters shadow 00:33:35 - 24° (NNE) 2,938 6.1 -15.0°
